EW4389 Weather Reports


Display with metric or nautical units.
time (UTC)temp
F
wind
direction
speed
MPH
gust
MPH
rain 1hr
in
rain 24hr
in
rain mn
in
humidity
%
barometer
mb
20260831004518 64 287 1.0 4.0 0.02 0.02 0.02 38 1015.8
20260831003015 64 287 1.0 4.0 0.02 0.02 0.02 38 1015.7
20260831001526 65 287 2.0 5.0 0.02 0.02 0.02 39 1015.5
20260831000016 65 287 1.0 4.0 0.01 0.01 0.01 39 1015.5
20260830234533 65 287 0.0 4.0 0.00 0.00 0.00 40 1015.4
20260830233013 65 311 1.0 4.0 0.00 0.00 0.00 40 1015.2
20260830231514 65 311 0.0 3.0 0.00 0.00 0.00 39 1015.1
20260830230028 66 312 0.0 2.0 0.00 0.00 0.00 39 1015.2
20260830224516 66 312 0.0 3.0 0.00 0.00 0.00 40 1015.2
20260830223017 66 312 0.0 4.0 0.00 0.00 0.00 40 1015.2
20260830221509 66 312 2.0 8.0 0.00 0.00 0.00 40 1015.2
20260830220023 66 312 3.0 8.0 0.00 0.00 0.00 39 1015.2
20260830214507 66 316 3.0 8.0 0.00 0.00 0.00 39 1015.2
20260830213008 66 311 2.0 5.0 0.00 0.00 0.00 39 1015.1
20260830211507 67 286 3.0 8.0 0.00 0.00 0.00 40 1015.2
20260830210006 67 303 3.0 8.0 0.00 0.00 0.00 41 1015.2
20260830204509 67 312 4.0 8.0 0.00 0.00 0.00 42 1015.2
20260830203004 67 310 2.0 6.0 0.00 0.00 0.00 43 1015.0
20260830201505 67 318 6.0 11.0 0.00 0.00 0.00 48 1015.2
20260830200001 67 308 2.0 8.0 0.00 0.00 0.00 50 1015.2
20260830194600 67 302 2.0 8.0 0.00 0.00 0.00 51 1015.3
20260830193059 67 310 1.0 8.0 0.00 0.00 0.00 51 1015.4
20260830191600 67 276 1.0 7.0 0.00 0.00 0.00 53 1015.5
20260830190057 68 275 1.0 9.0 0.00 0.00 0.00 54 1015.5
20260830184557 68 330 1.0 5.0 0.00 0.00 0.00 53 1015.6
20260830183058 68 330 1.0 3.0 0.00 0.00 0.00 54 1015.7
20260830181607 68 330 1.0 5.0 0.00 0.00 0.00 56 1015.7
20260830180105 68 339 1.0 4.0 0.00 0.00 0.00 55 1015.6
20260830174601 67 334 2.0 9.0 0.00 0.00 0.00 54 1015.7
20260830173102 67 311 3.0 8.0 0.00 0.00 0.00 56 1015.6
20260830171553 67 273 2.0 5.0 0.00 0.00 0.00 55 1015.3
20260830170051 67 273 0.0 4.0 0.00 0.00 0.00 56 1015.4
20260830164553 67 273 0.0 2.0 0.00 0.00 0.00 57 1015.7
20260830163056 67 273 0.0 2.0 0.00 0.00 0.00 58 1015.7
20260830161548 67 273 0.0 7.0 0.00 0.00 0.00 60 1015.8
20260830160048 67 275 1.0 5.0 0.00 0.00 0.00 60 1015.8
20260830154547 67 274 1.0 4.0 0.00 0.00 0.00 60 1015.8
20260830153047 67 274 1.0 7.0 0.00 0.00 0.00 61 1015.7
20260830151545 68 274 1.0 5.0 0.00 0.00 0.00 61 1015.7
20260830150045 68 274 1.0 7.0 0.00 0.00 0.00 62 1015.6
20260830144546 68 273 1.0 5.0 0.00 0.00 0.00 61 1015.5
20260830143045 68 273 0.0 5.0 0.00 0.00 0.00 62 1015.4
20260830141542 68 274 1.0 5.0 0.00 0.00 0.00 62 1015.3
20260830140043 68 277 1.0 4.0 0.00 0.00 0.00 63 1015.2
20260830134543 67 278 1.0 9.0 0.00 0.00 0.00 64 1015.2
20260830133043 67 248 3.0 8.0 0.00 0.00 0.00 63 1015.2
20260830131535 66 254 1.0 6.0 0.00 0.00 0.00 64 1015.2
20260830130034 66 254 1.0 7.0 0.00 0.00 0.00 65 1015.2
20260830124534 66 258 1.0 5.0 0.00 0.00 0.00 64 1015.2
20260830123034 65 250 0.0 6.0 0.00 0.00 0.00 65 1015.1
20260830121530 65 252 1.0 6.0 0.00 0.00 0.00 66 1015.2
20260830120029 65 255 1.0 9.0 0.00 0.00 0.00 66 1015.4
20260830114530 65 245 2.0 7.0 0.00 0.00 0.00 67 1015.5
20260830113031 65 250 1.0 10.0 0.00 0.00 0.00 67 1015.6
20260830111529 65 252 2.0 8.0 0.00 0.00 0.00 67 1015.6
20260830110027 65 255 2.0 9.0 0.00 0.00 0.00 67 1015.6
20260830104525 65 243 1.0 9.0 0.00 0.00 0.00 68 1015.4
20260830103024 65 236 3.0 10.0 0.00 0.00 0.00 68 1015.4
20260830101521 65 247 2.0 10.0 0.00 0.00 0.00 68 1015.6
20260830100027 65 240 4.0 11.0 0.00 0.00 0.00 68 1015.7
20260830094538 65 246 4.0 11.0 0.00 0.00 0.00 68 1015.9
20260830093019 65 253 2.0 9.0 0.00 0.00 0.00 67 1015.7
20260830091516 65 260 1.0 9.0 0.00 0.00 0.00 67 1015.8
20260830090036 65 228 6.0 12.0 0.00 0.00 0.00 67 1016.0
20260830084511 65 258 7.0 14.0 0.00 0.00 0.00 67 1016.2
20260830083011 65 240 6.0 11.0 0.00 0.00 0.00 67 1016.2
20260830081507 65 237 6.0 12.0 0.00 0.00 0.00 67 1016.4
20260830080016 65 237 5.0 11.0 0.00 0.00 0.00 67 1016.4
20260830074505 65 248 5.0 9.0 0.00 0.00 0.00 67 1016.5
20260830073003 65 259 3.0 10.0 0.00 0.00 0.00 67 1016.4
20260830071600 66 244 4.0 12.0 0.00 0.00 0.00 67 1016.5
20260830070100 66 258 3.0 8.0 0.00 0.00 0.00 67 1016.6
20260830064559 66 246 3.0 10.0 0.00 0.00 0.00 66 1016.6
20260830063058 66 339 2.0 11.0 0.00 0.00 0.00 66 1016.6
20260830061627 66 247 3.0 14.0 0.00 0.00 0.00 66 1016.8
20260830060052 66 243 2.0 9.0 0.00 0.00 0.00 67 1016.9
20260830054554 66 244 6.0 11.0 0.00 0.00 0.00 66 1017.1
20260830053050 66 249 2.0 9.0 0.00 0.00 0.00 66 1017.2
20260830051552 66 265 5.0 13.0 0.00 0.00 0.00 66 1017.3
20260830050046 66 239 3.0 12.0 0.00 0.00 0.00 67 1016.9
20260830044545 65 239 4.0 9.0 0.00 0.00 0.00 67 1017.0
20260830043059 65 250 2.0 8.0 0.00 0.00 0.00 67 1016.9
20260830041546 65 248 2.0 8.0 0.00 0.00 0.00 67 1017.0
20260830040050 65 247 1.0 7.0 0.00 0.00 0.00 67 1016.9
20260830034539 65 241 2.0 8.0 0.00 0.00 0.00 67 1016.9
20260830033039 65 244 1.0 8.0 0.00 0.00 0.00 67 1016.9
20260830031537 65 242 2.0 8.0 0.00 0.00 0.00 67 1016.9
20260830030037 65 245 1.0 8.0 0.00 0.00 0.00 66 1017.1
20260830024537 65 251 2.0 9.0 0.00 0.00 0.00 66 1017.2
20260830023035 65 246 3.0 7.0 0.00 0.00 0.00 66 1017.3
20260830021535 65 252 2.0 7.0 0.00 0.00 0.00 67 1017.3
20260830020041 65 256 2.0 5.0 0.00 0.00 0.00 67 1017.2
20260830014537 65 248 1.0 6.0 0.00 0.00 0.00 67 1017.5
20260830013044 65 248 2.0 9.0 0.00 0.00 0.00 67 1017.4
20260830011532 65 243 1.0 7.0 0.00 0.00 0.00 67 1017.3
20260830010031 65 240 1.0 6.0 0.00 0.00 0.00 67 1017.3